KC5ZJO-1 Weather Reports


time (UTC)temp
C
wind
direction
speed
KPH
gust
KPH
rain 1hr
cm
rain 24hr
cm
rain mn
cm
humidity
%
barometer
mb
20260510204524 27 313 9.7 12.9 0.00 0.00 0.00 48 1015.2
20260510204004 27 210 0.0 8.0 0.00 0.00 0.00 48 1015.2
20260510203504 27 17 1.6 9.7 0.00 0.00 0.00 49 1015.3
20260510203004 27 302 0.0 9.7 0.00 0.00 0.00 49 1015.4
20260510202503 27 287 3.2 6.4 0.00 0.00 0.00 48 1015.6
20260510202004 27 296 0.0 16.1 0.00 0.00 0.00 50 1015.6
20260510201503 27 291 3.2 16.1 0.00 0.00 0.00 50 1015.6
20260510201024 27 311 9.7 14.5 0.00 0.00 0.00 49 1015.7
20260510200503 27 305 3.2 12.9 0.00 0.00 0.00 51 1015.8
20260510200003 26 18 0.0 8.0 0.00 0.00 0.00 53 1015.9
20260510195503 26 40 1.6 8.0 0.00 0.00 0.00 55 1015.9
20260510195004 26 296 0.0 0.0 0.00 0.00 0.00 54 1015.8
20260510194503 26 296 0.0 0.0 0.00 0.00 0.00 56 1015.8
20260510194003 26 296 0.0 6.4 0.00 0.00 0.00 55 1015.9
20260510193503 26 296 0.0 6.4 0.00 0.00 0.00 54 1015.9
20260510193025 25 301 1.6 4.8 0.00 0.00 0.00 55 1015.9
20260510192503 25 307 0.0 9.7 0.00 0.00 0.00 55 1015.9
20260510192004 25 293 3.2 9.7 0.00 0.00 0.00 56 1015.9
20260510191504 25 358 0.0 0.0 0.00 0.00 0.00 57 1015.9
20260510191025 26 358 0.0 8.0 0.00 0.00 0.00 56 1015.9
20260510190503 26 358 0.0 11.3 0.00 0.00 0.00 56 1016.0
20260510190004 26 323 3.2 11.3 0.00 0.00 0.00 57 1016.1
20260510185503 26 324 6.4 11.3 0.00 0.00 0.00 57 1016.1
20260510185003 25 351 0.0 11.3 0.00 0.00 0.00 57 1016.2
20260510184503 26 301 3.2 11.3 0.00 0.00 0.00 57 1016.3
20260510184003 26 166 1.6 11.3 0.00 0.00 0.00 58 1016.3
20260510183503 25 6 3.2 11.3 0.00 0.00 0.00 59 1016.3
20260510183004 25 302 1.6 9.7 0.00 0.00 0.00 59 1016.3
20260510182503 25 340 0.0 9.7 0.00 0.00 0.00 59 1016.4
20260510182003 25 315 4.8 11.3 0.00 0.00 0.00 60 1016.3
20260510181503 25 316 6.4 12.9 0.00 0.00 0.00 60 1016.4
20260510181003 25 308 4.8 12.9 0.00 0.00 0.00 60 1016.4
20260510180503 25 214 6.4 11.3 0.00 0.00 0.00 62 1016.5
20260510180003 24 3 3.2 9.7 0.00 0.00 0.00 63 1016.6
20260510175524 24 316 0.0 9.7 0.00 0.00 0.00 64 1016.7
20260510175003 24 314 3.2 9.7 0.00 0.00 0.00 65 1016.7
20260510174524 24 62 0.0 9.7 0.00 0.00 0.00 67 1016.7
20260510174003 24 299 3.2 11.3 0.00 0.00 0.00 67 1016.8
20260510173504 24 341 4.8 11.3 0.00 0.00 0.00 69 1016.8
20260510173004 24 319 8.0 11.3 0.00 0.00 0.00 69 1016.8
20260510172503 23 151 0.0 11.3 0.00 0.00 0.00 72 1016.8
20260510172003 23 188 8.0 11.3 0.00 0.00 0.00 71 1016.9
20260510171502 23 219 3.2 9.7 0.00 0.00 0.00 73 1016.9
20260510171025 23 243 3.2 12.9 0.00 0.00 0.00 72 1016.8
20260510170502 23 184 9.7 12.9 0.00 0.00 0.00 73 1016.8
20260510170003 23 332 1.6 4.8 0.00 0.00 0.00 75 1016.8
20260510165503 23 216 0.0 0.0 0.00 0.00 0.00 76 1016.9
20260510165003 23 216 0.0 6.4 0.00 0.00 0.00 79 1016.9
20260510164503 23 265 1.6 8.0 0.00 0.00 0.00 79 1016.9
20260510164003 23 241 0.0 11.3 0.00 0.00 0.00 81 1017.0
20260510163503 22 247 0.0 11.3 0.00 0.00 0.00 82 1017.1
20260510163025 22 287 4.8 8.0 0.00 0.00 0.00 83 1017.2
20260510162502 22 219 0.0 9.7 0.00 0.00 0.00 84 1017.1
20260510162003 22 225 3.2 9.7 0.00 0.00 0.00 85 1017.2
20260510161504 22 233 1.6 8.0 0.00 0.00 0.00 87 1017.1
20260510161003 22 227 1.6 11.3 0.00 0.00 0.00 88 1017.1
20260510160503 22 289 0.0 11.3 0.00 0.00 0.00 88 1017.1
20260510160003 22 297 3.2 11.3 0.00 0.00 0.00 89 1017.1
20260510155525 22 184 0.0 11.3 0.00 0.00 0.00 90 1017.1
20260510155023 22 226 6.4 11.3 0.00 0.00 0.00 92 1017.0
20260510154502 22 245 3.2 9.7 0.00 0.00 0.00 93 1016.9
20260510154046 21 184 0.0 9.7 0.00 0.00 0.00 94 1016.9
20260510153503 21 279 1.6 9.7 0.00 0.00 0.00 95 1016.9
20260510153004 21 186 1.6 9.7 0.00 0.00 0.00 95 1016.9
20260510152503 20 266 3.2 9.7 0.00 0.00 0.00 96 1016.9
20260510152003 20 176 1.6 8.0 0.00 0.00 0.00 97 1016.9
20260510151503 20 329 1.6 8.0 0.00 0.00 0.00 97 1017.0
20260510151003 20 219 0.0 9.7 0.00 0.00 0.00 98 1017.0
20260510150502 20 210 3.2 9.7 0.00 0.00 0.00 100 1017.0
20260510150004 19 194 0.0 6.4 0.00 0.00 0.00 100 1017.0
20260510145503 19 205 3.2 9.7 0.00 0.00 0.00 100 1017.0
20260510145005 18 211 4.8 9.7 0.00 0.00 0.00 100 1017.0
20260510144502 18 238 0.0 4.8 0.00 0.00 0.00 100 1017.0
20260510144024 18 216 0.0 8.0 0.00 0.00 0.00 100 1017.2
20260510143504 18 216 0.0 8.0 0.00 0.00 0.00 100 1017.2
20260510143003 18 192 1.6 8.0 0.00 0.00 0.00 100 1017.2
20260510142502 18 168 0.0 0.0 0.00 0.00 0.00 100 1017.2
20260510142002 17 168 0.0 0.0 0.00 0.00 0.00 100 1017.2
20260510141524 17 168 0.0 0.0 0.00 0.00 0.00 100 1017.1
20260510141024 17 168 0.0 0.0 0.00 0.00 0.00 100 1017.2
20260510140503 17 168 0.0 0.0 0.00 0.00 0.00 100 1017.2
20260510140003 17 168 0.0 0.0 0.00 0.00 0.00 100 1017.2
20260510135503 17 168 0.0 0.0 0.00 0.00 0.00 100 1017.2
20260510135003 17 168 0.0 4.8 0.00 0.00 0.00 100 1017.1
20260510134505 17 190 1.6 4.8 0.00 0.00 0.00 100 1017.1
20260510134002 17 196 0.0 0.0 0.00 0.00 0.00 100 1017.0
20260510133502 17 196 0.0 0.0 0.00 0.00 0.00 100 1017.0
20260510133003 17 196 0.0 0.0 0.00 0.00 0.00 100 1016.9
20260510132503 16 196 0.0 0.0 0.00 0.00 0.00 100 1017.0
20260510132024 16 196 0.0 0.0 0.00 0.00 0.00 100 1017.0
20260510131503 17 196 0.0 0.0 0.00 0.00 0.00 100 1016.9
20260510131003 16 196 0.0 0.0 0.00 0.00 0.00 100 1016.9
20260510130502 16 196 0.0 0.0 0.00 0.00 0.00 100 1016.8
20260510130003 16 196 0.0 0.0 0.00 0.00 0.00 100 1016.8
20260510125503 16 196 0.0 0.0 0.00 0.00 0.00 100 1016.7
20260510125003 16 196 0.0 0.0 0.00 0.00 0.00 100 1016.7
20260510124503 16 196 0.0 0.0 0.00 0.00 0.00 100 1016.6
20260510124002 16 196 0.0 0.0 0.00 0.00 0.00 100 1016.4
20260510123502 16 196 0.0 0.0 0.00 0.00 0.00 100 1016.3
20260510123003 16 196 0.0 0.0 0.00 0.00 0.00 100 1016.3
20260510122503 16 196 0.0 0.0 0.00 0.00 0.00 100 1016.2
20260510122024 16 196 0.0 0.0 0.00 0.00 0.00 100 1016.1
20260510121502 16 196 0.0 0.0 0.00 0.00 0.00 100 1016.2
20260510121045 16 196 0.0 0.0 0.00 0.00 0.00 100 1016.1
20260510120545 16 196 0.0 0.0 0.00 0.00 0.00 100 1016.2
20260510120003 16 196 0.0 0.0 0.00 0.00 0.00 100 1016.1
20260510115503 16 196 0.0 0.0 0.00 0.00 0.00 100 1016.0
20260510115024 16 196 0.0 0.0 0.00 0.00 0.00 100 1015.9
20260510114502 16 196 0.0 0.0 0.00 0.00 0.00 100 1015.8
20260510114024 16 196 0.0 0.0 0.00 0.00 0.00 100 1015.8
20260510113524 15 196 0.0 0.0 0.00 0.00 0.00 100 1015.7
20260510113003 15 196 0.0 0.0 0.00 0.00 0.00 100 1015.7
20260510112503 15 196 0.0 0.0 0.00 0.00 0.00 100 1015.6
20260510112003 15 196 0.0 0.0 0.00 0.00 0.00 100 1015.5
20260510111502 15 196 0.0 0.0 0.00 0.00 0.00 100 1015.4
20260510110504 15 196 0.0 0.0 0.00 0.00 0.00 100 1015.3
20260510110003 15 196 0.0 0.0 0.00 0.00 0.00 100 1015.3
20260510105503 15 196 0.0 0.0 0.00 0.00 0.00 100 1015.1
20260510105002 15 196 0.0 0.0 0.00 0.00 0.00 100 1015.0
20260510104503 15 196 0.0 0.0 0.00 0.00 0.00 100 1014.9
20260510104003 15 196 0.0 0.0 0.00 0.00 0.00 100 1014.8
20260510103503 15 196 0.0 0.0 0.00 0.00 0.00 100 1014.7
20260510103003 15 196 0.0 0.0 0.00 0.00 0.00 100 1014.6
20260510102503 15 196 0.0 0.0 0.00 0.00 0.00 100 1014.6
20260510102003 15 196 0.0 0.0 0.00 0.00 0.00 100 1014.5
20260510101503 14 196 0.0 0.0 0.00 0.00 0.00 100 1014.5
20260510101003 14 196 0.0 0.0 0.00 0.00 0.00 100 1014.5
20260510100503 14 196 0.0 0.0 0.00 0.00 0.00 100 1014.5
20260510100004 14 196 0.0 0.0 0.00 0.00 0.00 100 1014.5
20260510095503 14 196 0.0 0.0 0.00 0.00 0.00 100 1014.4
20260510095024 14 196 0.0 0.0 0.00 0.00 0.00 100 1014.4
20260510094503 14 196 0.0 0.0 0.00 0.00 0.00 100 1014.4
20260510094003 14 196 0.0 0.0 0.00 0.00 0.00 100 1014.2
20260510093504 14 196 0.0 0.0 0.00 0.00 0.00 100 1014.2
20260510093003 14 196 0.0 0.0 0.00 0.00 0.00 100 1014.2
20260510092504 14 196 0.0 0.0 0.00 0.00 0.00 100 1014.2
20260510092003 14 196 0.0 0.0 0.00 0.00 0.00 100 1014.3
20260510091504 14 196 0.0 0.0 0.00 0.00 0.00 100 1014.4
20260510091004 14 196 0.0 0.0 0.00 0.00 0.00 100 1014.5
20260510090503 14 196 0.0 0.0 0.00 0.00 0.00 100 1014.4
20260510090003 14 196 0.0 0.0 0.00 0.00 0.00 100 1014.5
20260510085003 14 196 0.0 0.0 0.00 0.00 0.00 100 1014.2
20260510084503 14 196 0.0 0.0 0.00 0.00 0.00 100 1014.1
20260510084005 14 196 0.0 0.0 0.00 0.00 0.00 100 1014.0
20260510083504 14 196 0.0 0.0 0.00 0.00 0.00 100 1013.9
20260510083004 14 196 0.0 0.0 0.00 0.00 0.00 100 1013.8
20260510082504 15 196 0.0 0.0 0.00 0.00 0.00 100 1013.8
20260510082025 15 196 0.0 0.0 0.00 0.00 0.00 100 1013.7
20260510081504 15 196 0.0 0.0 0.00 0.00 0.00 100 1013.5
20260510081003 15 196 0.0 0.0 0.00 0.00 0.00 100 1013.3
20260510080503 15 196 0.0 0.0 0.00 0.00 0.00 100 1013.3
20260510080004 15 196 0.0 0.0 0.00 0.00 0.00 99 1013.3
20260510075503 15 196 0.0 0.0 0.00 0.00 0.00 99 1013.3
20260510075003 15 196 0.0 0.0 0.00 0.00 0.00 99 1013.3
20260510074503 15 196 0.0 0.0 0.00 0.00 0.00 99 1013.3
20260510074003 15 196 0.0 0.0 0.00 0.00 0.00 99 1013.2
20260510073503 15 196 0.0 0.0 0.00 0.00 0.00 98 1013.1
20260510073003 15 196 0.0 0.0 0.00 0.00 0.00 98 1013.2
20260510072545 15 196 0.0 0.0 0.00 0.00 0.00 98 1013.3
20260510072003 15 196 0.0 0.0 0.00 0.00 0.00 98 1013.2
20260510071504 15 196 0.0 0.0 0.00 0.00 0.00 98 1013.2
20260510071004 15 196 0.0 0.0 0.00 0.00 0.00 98 1013.3
20260510070504 15 196 0.0 0.0 0.00 0.00 0.00 98 1013.3
20260510070004 15 196 0.0 0.0 0.00 0.00 0.00 98 1013.2
20260510065525 15 196 0.0 0.0 0.00 0.00 0.00 98 1013.2
20260510065004 15 196 0.0 0.0 0.00 0.00 0.00 98 1013.2
20260510064504 15 196 0.0 0.0 0.00 0.00 0.00 98 1013.2
20260510064003 15 196 0.0 0.0 0.00 0.00 0.00 97 1013.2
20260510063524 15 196 0.0 0.0 0.00 0.00 0.00 97 1013.3
20260510063003 15 196 0.0 0.0 0.00 0.00 0.00 97 1013.3
20260510062503 15 196 0.0 0.0 0.00 0.00 0.00 97 1013.3
20260510062003 15 196 0.0 0.0 0.00 0.00 0.00 97 1013.3
20260510061524 15 196 0.0 0.0 0.00 0.00 0.00 97 1013.4
20260510061025 15 196 0.0 0.0 0.00 0.00 0.00 97 1013.3
20260510060503 15 196 0.0 0.0 0.00 0.00 0.00 96 1013.4
20260510060004 15 196 0.0 0.0 0.00 0.00 0.00 96 1013.4
20260510055503 15 196 0.0 0.0 0.00 0.00 0.00 96 1013.4
20260510055004 15 196 0.0 0.0 0.00 0.00 0.00 96 1013.4
20260510054503 16 196 0.0 0.0 0.00 0.00 0.00 96 1013.4
20260510054003 16 196 0.0 0.0 0.00 0.00 0.00 96 1013.4
20260510053503 16 196 0.0 0.0 0.00 0.00 0.00 95 1013.5
20260510053025 16 196 0.0 0.0 0.00 0.00 0.00 95 1013.4
20260510052524 16 196 0.0 0.0 0.00 0.00 0.00 95 1013.4
20260510052003 16 196 0.0 0.0 0.00 0.00 0.00 95 1013.5
20260510051504 16 196 0.0 0.0 0.00 0.00 0.00 95 1013.4
20260510051025 16 196 0.0 0.0 0.00 0.00 0.00 95 1013.4
20260510050503 16 196 0.0 0.0 0.00 0.00 0.00 95 1013.4
20260510050004 16 196 0.0 0.0 0.00 0.00 0.00 94 1013.4
20260510045524 16 196 0.0 0.0 0.00 0.00 0.00 94 1013.4
20260510045003 16 196 0.0 0.0 0.00 0.00 0.00 94 1013.4
20260510044003 16 196 0.0 0.0 0.00 0.00 0.00 94 1013.4
20260510043505 16 196 0.0 0.0 0.00 0.00 0.00 93 1013.7
20260510043003 16 196 0.0 0.0 0.00 0.00 0.00 93 1013.7
20260510042503 17 196 0.0 0.0 0.00 0.00 0.00 93 1013.7
20260510042003 17 196 0.0 0.0 0.00 0.00 0.00 93 1013.7
20260510041503 17 196 0.0 0.0 0.00 0.00 0.00 92 1013.8
20260510041003 17 196 0.0 0.0 0.00 0.00 0.00 92 1013.8
20260510040503 17 196 0.0 0.0 0.00 0.00 0.00 92 1013.7
20260510040004 17 196 0.0 0.0 0.00 0.00 0.00 92 1013.8
20260510035525 17 196 0.0 0.0 0.00 0.00 0.00 92 1013.7
20260510035003 17 196 0.0 0.0 0.00 0.00 0.00 91 1013.7
20260510034524 17 196 0.0 0.0 0.00 0.00 0.00 91 1013.7
20260510034025 17 196 0.0 0.0 0.00 0.00 0.00 91 1013.7
20260510033503 17 196 0.0 0.0 0.00 0.00 0.00 91 1013.8
20260510033003 17 196 0.0 0.0 0.00 0.00 0.00 90 1013.8
20260510032524 17 196 0.0 0.0 0.00 0.00 0.00 90 1013.7
20260510032003 17 196 0.0 0.0 0.00 0.00 0.00 90 1013.7
20260510031504 17 196 0.0 0.0 0.00 0.00 0.00 90 1013.8
20260510031003 17 196 0.0 0.0 0.00 0.00 0.00 90 1013.7
20260510030503 17 196 0.0 0.0 0.00 0.00 0.00 90 1013.5
20260510030003 18 196 0.0 0.0 0.00 0.00 0.00 89 1013.5
20260510025504 18 196 0.0 0.0 0.00 0.00 0.00 89 1013.5
20260510025004 18 196 0.0 0.0 0.00 0.00 0.00 88 1013.4
20260510024503 18 196 0.0 0.0 0.00 0.00 0.00 88 1013.3
20260510024003 18 196 0.0 0.0 0.00 0.00 0.00 88 1013.3
20260510023503 18 196 0.0 4.8 0.00 0.00 0.00 88 1013.3
20260510023003 18 201 0.0 4.8 0.00 0.00 0.00 87 1013.2
20260510022503 18 165 0.0 0.0 0.00 0.00 0.00 86 1013.1
20260510022024 18 165 0.0 0.0 0.00 0.00 0.00 86 1013.0
20260510021503 18 165 0.0 0.0 0.00 0.00 0.00 85 1012.8
20260510020504 18 165 0.0 0.0 0.00 0.00 0.00 84 1012.6
20260510020005 18 165 0.0 0.0 0.00 0.00 0.00 84 1012.5
20260510015502 18 165 0.0 0.0 0.00 0.00 0.00 83 1012.4
20260510015003 18 165 0.0 4.8 0.00 0.00 0.00 83 1012.3
20260510014503 18 165 0.0 4.8 0.00 0.00 0.00 83 1012.2
20260510014004 19 165 0.0 0.0 0.00 0.00 0.00 82 1012.1
20260510013524 19 165 0.0 0.0 0.00 0.00 0.00 83 1012.1
20260510013003 19 165 0.0 0.0 0.00 0.00 0.00 82 1012.0
20260510012503 19 165 0.0 0.0 0.00 0.00 0.00 81 1011.9
20260510012004 19 165 0.0 0.0 0.00 0.00 0.00 81 1011.9
20260510011502 20 165 0.0 0.0 0.00 0.00 0.00 80 1011.7
20260510011003 20 165 0.0 0.0 0.00 0.00 0.00 80 1011.7
20260510010503 20 165 0.0 0.0 0.00 0.00 0.00 79 1011.7
20260510010003 20 165 0.0 0.0 0.00 0.00 0.00 78 1011.6
20260510005503 20 165 0.0 0.0 0.00 0.00 0.00 78 1011.5
20260510005003 20 165 0.0 0.0 0.00 0.00 0.00 77 1011.5
20260510004503 20 165 0.0 0.0 0.00 0.00 0.00 77 1011.5
20260510004025 21 165 0.0 0.0 0.00 0.00 0.00 76 1011.4
20260510003503 21 165 0.0 0.0 0.00 0.00 0.00 76 1011.2
20260510003003 21 165 0.0 9.7 0.00 0.00 0.00 75 1011.1
20260510002503 21 165 0.0 9.7 0.00 0.00 0.00 75 1011.0
20260510002003 21 190 1.6 6.4 0.00 0.00 0.00 75 1011.0
20260510001524 21 196 0.0 0.0 0.00 0.00 0.00 75 1010.9
20260510001024 21 196 0.0 6.4 0.00 0.00 0.00 74 1010.9
20260510000503 21 195 0.0 6.4 0.00 0.00 0.00 74 1011.0
20260510000003 21 219 0.0 4.8 0.00 0.00 0.00 73 1010.9
20260509235503 21 219 0.0 0.0 0.00 0.00 0.00 73 1010.8
20260509235005 21 219 0.0 0.0 0.00 0.00 0.00 72 1010.8
20260509234525 21 219 0.0 0.0 0.00 0.00 0.00 71 1010.8
20260509234002 22 219 0.0 0.0 0.00 0.00 0.00 71 1010.7
20260509233503 22 219 0.0 0.0 0.00 0.00 0.00 70 1010.6
20260509233004 22 219 0.0 0.0 0.00 0.00 0.00 69 1010.4
20260509232503 22 219 0.0 0.0 0.00 0.00 0.00 69 1010.6
20260509232003 22 219 0.0 0.0 0.00 0.00 0.00 69 1010.8
20260509231504 22 219 0.0 0.0 0.00 0.00 0.00 68 1010.8
20260509231003 22 219 0.0 0.0 0.00 0.00 0.00 67 1010.8
20260509230503 23 219 0.0 0.0 0.00 0.00 0.00 66 1010.6
20260509230003 23 219 0.0 0.0 0.00 0.00 0.00 65 1010.6
20260509225503 23 219 0.0 8.0 0.00 0.00 0.00 65 1010.6
20260509225004 23 219 0.0 8.0 0.00 0.00 0.00 64 1010.5
20260509224524 23 358 0.0 0.0 0.00 0.00 0.00 63 1010.5
20260509224004 23 358 0.0 8.0 0.00 0.00 0.00 63 1010.5
20260509223504 23 358 0.0 9.7 0.00 0.00 0.00 63 1010.5
20260509223003 23 318 6.4 9.7 0.00 0.00 0.00 63 1010.4
20260509222503 23 299 0.0 0.0 0.00 0.00 0.00 63 1010.3
20260509222004 23 299 0.0 8.0 0.00 0.00 0.00 63 1010.3
20260509221503 23 299 0.0 11.3 0.00 0.00 0.00 63 1010.3
20260509221003 23 298 0.0 11.3 0.00 0.00 0.00 63 1010.3
20260509220504 23 328 0.0 4.8 0.00 0.00 0.00 63 1010.3
20260509220003 23 274 0.0 0.0 0.00 0.00 0.00 63 1010.3
20260509215525 23 274 0.0 0.0 0.00 0.00 0.00 63 1010.3
20260509215003 23 274 0.0 0.0 0.00 0.00 0.00 63 1010.3
20260509214503 23 274 0.0 4.8 0.00 0.00 0.00 63 1010.3
20260509214024 23 273 0.0 4.8 0.00 0.00 0.00 63 1010.3
20260509213503 23 277 0.0 4.8 0.00 0.00 0.00 64 1010.3
20260509213005 23 357 0.0 9.7 0.00 0.00 0.00 63 1010.3
20260509212524 23 319 3.2 9.7 0.00 0.00 0.00 64 1010.2
20260509212003 23 277 0.0 6.4 0.00 0.00 0.00 63 1010.2
20260509211504 23 11 0.0 11.3 0.00 0.00 0.00 63 1010.2
20260509211003 23 350 1.6 11.3 0.00 0.00 0.00 63 1010.3
20260509210503 23 321 6.4 9.7 0.00 0.00 0.00 64 1010.3
20260509210004 23 14 0.0 11.3 0.00 0.00 0.00 64 1010.3
20260509205503 23 353 4.8 11.3 0.00 0.00 0.00 63 1010.3
20260509205026 23 236 0.0 6.4 0.00 0.00 0.00 63 1010.4